Temp
12 12 12 12 12 12 12 12 12 13 13 13 13 12 12 12 12 12 12 13 13 13 13 12 12 11 11 12 12 12 11 11 10 10 10 10 11 11 11 11 11 10 10 10 9
12 12 12 12 12 12 12 12 13 13 12 13 13 13 12 12 12 12 12 12 12 13 13 13 11 12 13 13 12 12 10 10 10 11 11 10 11 12 12 11 10 9 9 8 8
12 12 12 12 12 12 12 12 12 13 13 12 13 13 13 12 12 12 12 12 12 12 12 12 12 13 13 13 12 12 11 11 10 10 10 11 11 12 11 11 10 9 8 8 8
12 12 12 12 12 13 12 12 12 12 12 12 12 13 13 12 12 11 12 12 12 12 13 13 12 13 14 12 10 11 10 11 10 10 10 11 10 12 12 11 11 9 9 8 8
12 12 12 12 12 13 12 12 12 12 12 12 12 12 12 12 11 12 12 12 12 12 12 12 13 14 14 12 11 11 10 11 10 9 9 9 11 11 11 11 10 9 9 8 9
12 12 12 12 12 12 12 12 12 12 12 12 12 12 12 12 10 13 12 12 12 12 12 12 13 14 13 13 13 11 10 9 10 10 10 10 10 11 11 10 10 9 9 9 8
12 12 12 12 12 12 12 12 12 12 12 12 12 12 12 11 10 12 13 12 12 12 12 12 13 13 13 12 13 11 11 10 10 10 10 10 10 9 11 10 10 10 10 9 8
12 12 12 12 12 12 12 11 11 11 12 12 11 11 10 11 10 12 12 12 12 12 11 12 12 12 13 12 12 12 11 11 11 10 11 10 10 10 11 11 11 10 10 9 8
12 12 13 13 12 12 12 11 11 11 11 11 11 11 10 11 12 11 10 11 11 12 12 12 12 12 13 13 12 10 10 11 11 10 11 10 11 10 10 11 10 10 10 9 9
12 12 12 13 13 12 12 11 11 11 11 11 11 11 11 11 11 11 11 11 11 11 12 12 13 13 13 13 11 10 10 10 12 11 10 10 11 11 10 10 10 10 10 10 9
12 12 12 12 12 12 12 11 11 11 11 11 11 12 13 12 11 11 11 11 11 12 12 13 14 15 13 11 12 11 12 12 13 12 11 12 12 11 11 10 10 11 10 11 10
12 12 12 12 12 12 12 11 10 10 11 12 11 12 12 12 11 11 11 12 12 13 13 14 15 14 13 12 13 14 13 14 15 14 13 12 12 10 12 11 10 11 10 11 10
12 12 12 12 12 12 12 13 11 11 11 13 12 12 12 12 13 12 11 12 13 13 14 15 16 15 14 13 13 15 15 16 16 15 14 11 11 11 10 9 10 11 11 10 10
12 12 12 12 12 12 12 12 11 11 11 14 13 13 13 13 13 13 12 13 14 14 15 15 16 16 15 15 16 17 16 16 16 16 14 14 11 11 12 11 10 11 11 11 10
12 12 12 12 11 11 10 11 11 11 14 14 14 14 13 13 14 13 13 13 14 14 15 15 15 15 15 16 16 16 16 16 17 16 15 15 13 12 11 12 11 12 12 11 11
11 12 11 12 12 11 12 11 11 12 16 16 14 14 14 14 14 13 13 13 14 14 15 15 16 16 16 16 16 16 16 16 17 17 18 16 12 12 11 11 9 12 13 12 11
11 11 11 11 12 11 11 11 11 13 16 17 15 15 14 15 15 14 13 13 14 14 15 15 15 15 15 16 16 16 16 17 18 18 18 18 17 14 15 14 14 13 13 13 12
11 11 11 11 11 11 11 10 12 15 16 17 16 16 15 16 16 14 14 14 14 15 16 17 17 16 16 16 16 16 17 18 16 15 14 15 16 15 15 15 14 14 14 13 12
11 11 11 10 11 11 10 10 13 15 17 17 17 16 16 16 16 15 15 15 16 16 16 18 18 16 16 16 16 17 17 17 18 19 20 19 17 17 16 15 14 14 13 13 12
11 11 9 10 10 10 9 11 13 15 16 16 17 17 17 17 16 16 16 16 16 16 16 17 17 17 16 16 16 16 17 17 18 18 18 18 18 17 16 15 15 14 14 13 12
10 9 9 9 10 10 9 11 13 14 14 14 15 16 17 17 17 17 17 17 16 16 16 16 17 17 16 16 16 16 16 16 17 18 19 18 17 16 16 15 15 14 14 13 12
10 8 9 9 9 9 10 11 13 14 14 14 14 14 15 16 17 17 17 17 17 16 16 16 17 17 17 17 17 17 17 17 17 18 17 17 15 16 15 15 15 14 13 13 12
9 9 8 9 9 10 12 12 13 13 14 13 14 14 14 15 16 17 17 17 16 16 16 16 16 17 17 17 16 16 16 16 17 17 17 17 16 13 14 13 13 13 13 12 11
9 8 9 8 9 10 11 12 13 13 12 13 13 14 14 15 15 16 16 17 16 16 15 15 16 17 17 15 13 15 15 16 16 16 17 17 14 14 14 14 13 12 12 11 10
7 8 8 8 10 10 10 11 11 12 12 12 12 13 13 14 15 15 16 16 16 15 15 15 15 15 16 16 16 16 16 16 16 16 15 16 15 14 15 13 13 12 11 10 10
5 4 6 7 7 8 9 9 9 11 12 12 12 12 13 13 13 14 15 15 16 13 14 14 15 15 15 15 16 16 15 15 15 15 15 15 15 15 14 13 12 11 10 10 10
3 5 3 5 6 8 9 9 10 10 10 11 11 12 12 13 12 12 12 13 14 14 14 14 15 15 15 15 15 15 15 15 15 15 15 15 15 14 14 12 12 11 10 10 10
Height
3147 3147 3146 3146 3146 3146 3145 3145 3145 3145 3146 3147 3148 3149 3151 3153 3154 3155 3157 3158 3159 3160 3160 3160 3161 3161 3163 3164 3165 3162 3157 3155 3154 3153 3146 3153 3160 3160 3160 3161 3160 3158 3158 3160 3162
3148 3148 3147 3147 3146 3146 3145 3145 3145 3145 3145 3146 3147 3148 3149 3151 3153 3154 3156 3157 3158 3159 3160 3160 3163 3165 3165 3163 3161 3160 3156 3155 3152 3153 3151 3152 3160 3162 3162 3161 3162 3160 3160 3160 3162
3150 3149 3148 3147 3146 3146 3145 3144 3144 3144 3144 3145 3146 3147 3148 3150 3153 3152 3153 3156 3157 3159 3160 3160 3165 3167 3165 3163 3158 3161 3155 3154 3153 3155 3156 3158 3159 3164 3165 3164 3164 3162 3162 3165 3162
3150 3149 3149 3148 3147 3146 3145 3144 3144 3143 3143 3144 3145 3146 3147 3149 3155 3148 3152 3154 3156 3158 3159 3160 3163 3165 3165 3159 3157 3158 3156 3154 3154 3155 3156 3154 3160 3165 3167 3167 3166 3165 3166 3167 3170
3151 3150 3149 3148 3147 3146 3145 3145 3144 3143 3143 3143 3144 3145 3147 3149 3149 3148 3149 3152 3155 3157 3158 3160 3164 3165 3164 3159 3156 3155 3157 3154 3154 3155 3156 3151 3161 3166 3170 3169 3168 3167 3168 3169 3171
3152 3151 3150 3149 3148 3147 3146 3145 3144 3143 3143 3143 3143 3145 3146 3150 3147 3147 3148 3150 3154 3156 3158 3161 3163 3164 3162 3159 3156 3159 3155 3155 3156 3156 3159 3161 3161 3165 3170 3170 3169 3169 3170 3172 3171
3153 3151 3150 3149 3148 3147 3147 3146 3145 3144 3143 3143 3143 3144 3146 3148 3148 3145 3147 3150 3153 3155 3159 3162 3162 3162 3160 3159 3158 3156 3156 3155 3154 3156 3158 3160 3164 3161 3166 3171 3171 3171 3171 3172 3172
3153 3152 3151 3150 3149 3148 3147 3147 3146 3145 3144 3144 3144 3145 3146 3146 3146 3145 3146 3148 3151 3154 3156 3160 3160 3160 3161 3157 3155 3159 3158 3158 3157 3156 3158 3160 3162 3163 3165 3165 3171 3172 3171 3173 3171
3153 3152 3151 3150 3149 3148 3147 3147 3146 3146 3145 3145 3146 3145 3147 3146 3145 3145 3147 3149 3151 3154 3155 3157 3157 3158 3158 3157 3158 3157 3156 3158 3160 3160 3158 3159 3159 3158 3163 3165 3169 3170 3171 3172 3172
3153 3151 3150 3149 3149 3148 3147 3148 3147 3147 3147 3147 3147 3148 3146 3147 3145 3147 3147 3150 3151 3154 3156 3157 3158 3157 3157 3156 3162 3160 3158 3158 3157 3159 3160 3160 3161 3160 3161 3165 3167 3169 3170 3171 3173
3152 3150 3149 3148 3148 3147 3148 3148 3150 3150 3147 3147 3148 3147 3149 3149 3145 3145 3146 3148 3152 3155 3156 3157 3157 3153 3153 3158 3159 3164 3158 3156 3156 3154 3158 3157 3157 3161 3161 3163 3165 3168 3168 3169 3172
3151 3150 3148 3147 3146 3146 3147 3148 3151 3149 3146 3144 3146 3148 3148 3146 3146 3146 3146 3151 3152 3154 3155 3157 3154 3152 3157 3157 3156 3158 3157 3154 3156 3156 3152 3149 3152 3163 3161 3160 3163 3165 3166 3166 3169
3148 3147 3147 3146 3145 3145 3146 3146 3147 3147 3146 3146 3146 3146 3146 3147 3148 3148 3148 3150 3152 3154 3154 3152 3152 3154 3151 3153 3153 3153 3152 3150 3151 3154 3154 3141 3155 3158 3158 3159 3160 3161 3165 3164 3166
3145 3144 3144 3144 3146 3144 3145 3146 3147 3148 3146 3145 3145 3146 3146 3146 3148 3148 3147 3151 3152 3152 3152 3152 3151 3152 3153 3153 3153 3149 3148 3149 3151 3153 3152 3149 3157 3157 3153 3154 3158 3157 3160 3161 3163
3141 3141 3141 3141 3143 3144 3148 3146 3147 3149 3145 3141 3143 3144 3145 3147 3146 3147 3147 3150 3150 3151 3152 3151 3151 3151 3151 3151 3150 3150 3150 3150 3148 3149 3146 3144 3152 3148 3139 3151 3154 3158 3156 3159 3165
3136 3137 3137 3138 3140 3141 3141 3144 3148 3152 3139 3139 3140 3142 3145 3145 3146 3146 3147 3148 3149 3149 3149 3148 3149 3149 3149 3150 3150 3150 3150 3147 3146 3144 3140 3134 3143 3145 3141 3145 3137 3154 3155 3156 3160
3133 3132 3133 3134 3136 3137 3140 3144 3150 3143 3137 3137 3139 3141 3142 3143 3144 3145 3146 3147 3147 3147 3146 3147 3147 3146 3147 3147 3148 3150 3149 3143 3142 3141 3139 3138 3137 3138 3141 3141 3134 3149 3151 3155 3159
3129 3128 3128 3130 3133 3135 3138 3144 3143 3134 3134 3132 3135 3138 3140 3140 3141 3143 3145 3145 3145 3144 3142 3140 3140 3142 3144 3145 3144 3145 3145 3142 3147 3149 3148 3141 3139 3148 3144 3142 3144 3148 3151 3156 3157
3126 3125 3125 3127 3129 3132 3136 3138 3133 3132 3131 3131 3132 3134 3136 3137 3139 3140 3142 3141 3141 3142 3140 3135 3135 3138 3142 3143 3145 3143 3143 3142 3140 3133 3129 3130 3138 3141 3141 3145 3147 3149 3151 3155 3159
3124 3123 3123 3124 3127 3129 3132 3131 3132 3132 3133 3132 3130 3132 3132 3133 3136 3137 3136 3137 3137 3138 3138 3137 3137 3138 3140 3143 3143 3142 3142 3140 3138 3134 3134 3132 3136 3140 3143 3146 3148 3150 3153 3155 3156
3123 3123 3122 3124 3125 3127 3127 3128 3130 3130 3132 3133 3133 3130 3130 3129 3129 3131 3133 3133 3134 3136 3138 3137 3137 3139 3139 3140 3139 3141 3141 3141 3139 3137 3135 3133 3141 3141 3144 3146 3148 3150 3153 3151 3156
3122 3124 3121 3123 3124 3124 3125 3127 3128 3128 3130 3130 3130 3129 3127 3126 3127 3128 3128 3129 3129 3133 3135 3137 3134 3134 3134 3135 3136 3136 3137 3138 3137 3137 3137 3135 3143 3143 3145 3147 3150 3150 3150 3152 3153
3120 3120 3121 3120 3122 3123 3124 3124 3125 3126 3126 3128 3128 3128 3127 3126 3125 3125 3125 3127 3128 3130 3133 3135 3135 3133 3132 3135 3136 3137 3137 3137 3136 3135 3135 3136 3140 3146 3147 3147 3148 3151 3149 3150 3150
3120 3122 3122 3120 3119 3120 3121 3120 3121 3122 3123 3123 3124 3125 3125 3125 3124 3124 3123 3125 3126 3128 3129 3133 3131 3130 3129 3136 3139 3138 3135 3135 3135 3135 3134 3136 3139 3145 3144 3145 3144 3146 3148 3148 3148
3118 3123 3121 3119 3122 3120 3120 3119 3118 3118 3119 3120 3121 3122 3123 3123 3122 3122 3123 3122 3122 3124 3127 3130 3131 3130 3128 3130 3131 3132 3132 3133 3133 3134 3135 3135 3138 3142 3142 3142 3143 3144 3144 3145 3144
3116 3115 3114 3112 3113 3115 3116 3115 3115 3116 3116 3117 3117 3119 3121 3122 3122 3121 3120 3118 3120 3124 3125 3127 3127 3129 3127 3127 3126 3126 3129 3131 3131 3132 3133 3135 3135 3138 3139 3138 3139 3140 3140 3140 3139
3110 3108 3109 3109 3111 3113 3113 3112 3112 3112 3113 3113 3114 3115 3115 3118 3113 3111 3112 3113 3117 3119 3121 3124 3123 3124 3124 3124 3124 3124 3124 3126 3128 3128 3130 3131 3133 3134 3135 3134 3135 3135 3134 3135 3134
Wind_Speed
7 6 5 4 2 1 1 3 4 5 6 8 12 15 15 14 13 12 11 12 7 6 5 4 1 3 6 6 11 9 17 12 5 14 11 13 9 8 11 13 9 8 9 7 3
6 6 5 5 4 3 2 2 4 5 6 7 8 11 15 15 15 14 15 10 9 8 6 4 4 4 6 11 14 11 10 8 6 4 16 5 10 7 9 11 12 14 12 4 2
7 6 5 5 5 5 4 3 2 4 6 7 7 8 10 13 12 13 14 13 10 9 8 6 7 9 9 13 15 7 10 8 5 9 17 13 10 5 8 10 8 11 14 14 3
8 7 6 6 6 6 5 4 3 2 4 6 6 7 7 9 3 14 13 15 13 10 9 6 6 6 12 14 7 5 4 6 8 11 15 19 9 10 9 11 9 10 13 11 10
7 6 6 6 6 5 5 5 4 3 1 4 6 6 7 14 8 5 12 17 14 11 10 4 5 7 12 12 7 18 8 4 5 14 2 9 15 12 9 10 10 12 11 8 9
7 7 7 6 6 6 6 6 6 5 3 1 4 7 11 9 19 15 8 16 15 12 11 6 6 9 9 5 8 1 3 2 8 10 10 16 11 19 10 9 9 10 9 7 7
9 7 6 5 4 4 5 6 6 6 4 1 3 8 14 5 11 17 8 15 16 15 7 8 9 8 13 6 5 2 5 4 4 14 10 13 10 11 14 6 7 10 9 8 7
9 8 6 5 3 3 4 5 6 6 5 3 3 7 4 10 8 11 8 12 17 16 11 7 13 10 11 3 5 4 4 4 1 11 15 10 9 9 17 16 10 10 9 7 4
8 7 6 5 4 3 3 4 5 6 7 6 6 5 3 12 9 7 8 9 12 14 13 8 9 9 9 9 10 1 11 7 5 8 7 17 14 17 20 18 14 12 9 9 8
8 7 5 4 4 4 2 2 5 7 3 7 4 1 4 7 5 9 10 8 10 11 10 10 10 12 15 13 8 25 19 9 3 13 10 10 7 12 16 16 13 14 15 10 7
8 7 6 5 5 5 2 7 11 14 5 2 6 3 7 6 9 8 9 8 11 10 10 9 11 16 12 7 16 1 8 13 2 12 12 5 10 6 13 18 13 18 12 7 16
11 8 7 7 6 6 6 4 8 7 11 11 9 11 6 7 3 6 9 10 12 12 10 14 13 5 7 11 11 6 1 3 4 7 19 12 16 9 5 12 16 17 21 20 13
13 11 8 7 7 7 8 6 5 5 8 8 12 8 6 7 5 7 11 11 9 13 13 15 9 7 9 7 18 14 2 9 2 5 9 10 6 12 17 18 18 17 14 21 16
15 13 11 8 6 7 4 5 2 5 7 12 12 6 10 8 6 9 11 10 10 13 13 15 13 8 10 10 8 11 7 4 5 6 9 10 8 8 13 19 21 19 14 15 14
17 14 14 10 7 7 4 8 6 3 6 15 11 8 9 7 7 8 10 12 12 12 14 15 14 14 10 11 9 12 6 8 9 10 17 14 1 5 13 23 22 22 17 16 19
16 14 15 13 9 12 8 10 4 5 11 9 13 9 14 9 8 6 10 12 9 12 14 16 9 12 13 12 12 10 10 12 12 15 17 18 18 9 18 10 29 26 18 13 15
15 15 14 14 14 12 13 13 6 14 7 10 12 9 13 9 10 6 10 12 12 10 13 12 15 10 12 12 10 11 13 20 6 5 10 7 4 6 6 5 16 16 11 11 14
13 12 13 13 14 12 15 11 13 11 14 5 9 11 12 14 10 7 10 12 12 15 16 15 14 15 12 14 15 9 17 16 11 3 4 14 14 10 13 9 7 9 7 6 8
12 9 10 12 14 15 17 20 20 14 8 7 9 16 14 12 10 10 12 13 14 11 17 8 5 12 12 8 11 9 11 12 13 22 15 13 12 14 14 9 5 7 5 4 6
10 7 2 9 13 16 18 25 18 16 18 11 10 13 13 15 14 14 13 10 14 13 15 12 6 9 10 9 11 14 13 10 9 3 5 10 5 20 12 8 8 10 3 7 7
6 4 10 7 12 18 20 20 18 17 12 13 11 16 16 16 20 15 14 15 10 12 12 11 9 4 11 11 13 10 10 12 12 14 7 6 12 9 8 7 9 8 10 9 5
2 5 18 12 11 14 18 17 17 18 14 14 18 19 21 19 16 21 16 13 14 12 12 14 13 11 15 9 11 10 7 9 14 10 12 18 2 5 7 3 5 7 14 8 9
3 8 12 8 10 10 13 16 18 19 20 18 16 18 18 18 18 16 15 13 11 12 10 12 13 14 13 13 7 7 12 14 16 17 17 13 8 3 8 4 4 8 7 11 10
2 3 5 8 12 13 13 12 17 19 20 19 18 17 19 20 21 19 15 14 12 13 15 13 13 15 17 4 17 13 11 12 10 15 14 7 10 9 4 10 12 11 10 10 9
4 1 7 5 5 12 14 16 17 15 17 16 20 18 18 18 19 20 19 16 15 18 16 16 20 18 17 12 9 11 10 11 9 11 13 19 13 6 6 4 7 9 13 8 11
6 8 14 14 13 13 14 14 16 17 14 18 15 18 20 22 20 20 19 20 18 19 16 18 18 17 20 18 15 13 13 14 16 17 16 16 18 15 13 8 9 10 13 15 17
12 13 10 12 11 12 13 14 15 16 18 18 17 17 17 17 15 20 15 14 9 15 18 19 20 18 19 17 16 17 14 15 16 17 17 18 14 10 8 6 11 15 16 18 14
Wind_Direction
46 41 35 29 27 2 254 249 247 238 234 228 222 220 217 215 214 210 206 210 194 184 185 170 103 337 299 295 286 306 295 308 253 195 229 83 92 85 93 102 108 106 164 206 156
41 35 30 25 19 11 337 265 249 245 240 235 228 224 221 220 220 220 219 213 198 194 191 178 266 319 294 263 270 288 299 308 274 221 220 81 110 80 142 119 119 113 142 193 28
35 34 27 19 16 8 353 332 275 247 240 235 233 228 221 221 226 234 219 213 206 202 203 185 247 261 276 286 299 321 304 297 176 152 163 134 92 124 106 119 136 132 127 129 74
24 22 21 17 10 12 5 1 348 290 240 232 224 225 209 184 145 255 234 212 206 203 199 168 255 268 289 262 288 302 294 313 201 174 165 151 74 98 101 124 138 137 128 137 147
20 19 16 17 21 25 26 24 17 4 285 227 212 205 190 170 289 262 251 210 201 197 193 202 249 279 289 293 256 297 272 306 194 169 159 93 149 111 127 133 135 138 131 120 118
14 10 12 19 32 36 36 38 35 29 20 202 195 184 169 153 248 258 268 200 195 191 189 229 234 284 277 307 303 104 270 117 165 180 161 158 133 128 130 137 136 131 130 138 129
7 5 4 9 25 34 38 38 39 35 33 64 168 176 178 161 242 272 247 203 196 184 216 247 261 259 286 271 208 116 121 139 332 197 172 172 189 132 137 150 151 146 141 149 159
3 1 355 351 349 1 22 33 35 38 38 62 118 153 131 261 253 252 246 205 201 197 206 237 250 257 260 7 188 178 200 169 166 174 196 199 167 170 154 165 172 167 158 163 167
353 351 350 333 312 310 342 14 20 29 45 75 111 118 301 283 276 236 215 206 212 202 221 247 231 260 259 204 235 299 291 168 138 184 233 207 215 211 168 165 190 178 176 188 170
344 339 325 315 294 281 297 10 38 3 50 83 34 314 278 334 250 213 217 201 216 206 226 242 240 240 225 215 269 271 301 262 98 202 188 184 184 189 186 176 204 180 185 190 183
324 327 315 293 276 262 224 106 8 336 303 260 273 82 306 221 220 200 206 192 192 201 213 230 233 242 177 109 120 180 261 288 164 172 187 222 231 240 187 193 191 208 191 222 182
304 309 308 289 268 249 215 175 314 239 277 272 220 245 225 228 175 193 186 178 194 204 213 220 241 241 309 1 202 211 57 330 164 157 217 200 203 221 259 202 196 203 204 227 223
291 290 292 290 267 250 233 253 248 264 275 231 231 221 218 204 211 213 190 187 204 212 216 232 241 203 220 320 213 249 133 280 134 170 235 351 120 309 199 216 207 193 213 219 221
283 282 278 278 269 242 244 241 216 302 297 214 205 222 215 173 214 216 206 193 218 222 226 237 232 262 271 265 258 277 313 301 270 241 226 296 197 115 219 206 219 210 191 226 186
281 274 270 259 251 191 186 219 222 279 283 160 190 205 190 149 165 228 212 204 226 230 228 237 243 257 261 248 251 252 297 280 264 259 234 224 175 223 166 198 205 206 211 200 194
283 272 260 252 238 226 227 192 191 246 254 170 181 204 194 215 228 207 206 203 211 249 236 244 271 246 254 243 243 254 280 266 257 251 235 202 173 215 180 188 259 194 182 202 204
287 274 255 241 229 217 196 176 217 241 132 189 203 205 199 204 196 220 199 207 214 214 217 233 247 258 237 239 219 240 250 259 254 337 294 292 47 153 197 145 86 144 142 186 205
301 283 258 242 227 208 191 191 228 234 240 242 201 207 210 212 217 202 210 220 229 239 263 228 209 213 212 224 214 225 247 260 253 130 236 270 79 103 138 136 122 113 126 161 205
312 296 256 238 219 206 187 211 222 247 294 287 207 207 221 226 235 204 221 232 228 232 254 252 294 159 205 223 241 247 234 257 285 269 247 183 157 164 143 150 141 152 127 144 170
309 315 247 242 214 206 206 223 232 238 288 273 254 223 244 220 212 236 226 241 245 220 238 283 181 190 212 228 240 254 269 290 234 297 343 31 353 132 146 158 158 159 185 175 169
315 48 261 279 220 210 221 234 250 251 276 253 260 261 241 251 223 221 236 238 216 220 226 246 259 213 189 219 235 211 243 258 280 286 309 246 97 137 144 172 181 166 155 157 150
284 98 280 285 223 228 237 243 244 257 248 256 249 262 273 276 240 242 236 239 214 212 218 228 252 233 217 242 214 246 256 243 240 276 289 320 120 87 110 149 196 180 191 185 187
291 220 278 248 224 239 260 257 244 251 251 246 255 249 256 265 278 255 246 233 216 201 219 226 244 263 234 227 234 256 254 258 264 270 240 226 202 360 255 198 225 205 231 228 232
0 1 278 293 242 260 269 258 260 251 251 245 251 249 247 255 253 261 253 244 216 212 216 237 264 246 293 204 235 258 250 250 262 272 283 324 98 301 300 295 257 253 251 222 227
105 257 278 245 279 263 263 260 262 259 253 250 245 247 241 254 250 246 248 250 231 223 226 223 246 267 272 238 233 241 267 272 264 268 288 284 308 260 311 178 211 209 217 249 256
283 276 231 241 268 279 264 271 260 253 253 247 252 242 242 246 251 258 274 251 255 225 235 227 236 244 269 276 275 248 256 255 262 265 265 266 282 289 279 274 279 288 279 266 263
235 261 257 260 279 272 266 267 264 267 249 245 254 251 248 244 247 251 251 248 256 229 216 229 232 233 251 263 282 278 246 251 260 257 260 268 277 274 274 264 278 276 274 277 270